User: anonymous   Login
Location: Vancouver
(49.2500°N, 123.1330°W)
Time: 06:59:41
(UTC-07:00)
Language:

Cosmos 1340 Rocket - Orbit

View from above orbital plane
View from above orbital plane
View from above satellite
View from above satellite

Ground track
Ground track

The orbit data is extracted from the following two-line orbital elements,

1 13068U 82013B   16206.18274003  .00000338  00000-0  21170-4 0  9991
2 13068  81.2027 236.8339 0021267 320.9373  39.0314 15.06647664874104
Epoch (UTC): 24 July 2016 04:23:08
Eccentricity: 0.0021267
inclination: 81.2027°
perigee height: 532 km
apogee height: 561 km
right ascension of ascending node: 236.8339°
argument of perigee: 320.9373°
revolutions per day: 15.06647664
mean anomaly at epoch: 39.0314°
orbit number at epoch: 87410

The dashed part of the orbit path shows where the satellite is in the earth's shadow,  

DLR